Flugplatz Burg Feuerstein
 
.... wo jeder bestens aufgehoben ist! 

 

DSC04520

 


Täglich sind wir von 08.30 bis 12.30 Uhr und von 13.00 bis 16.45 Uhr unter 09194 - 79 75 75 

oder 

rund um die Uhr per Diese E-Mail-Adresse ist vor Spambots geschützt! Zur Anzeige muss JavaScript eingeschaltet sein! zu erreichen!

 

Flugbetrieb an jedem fliegbaren Tag von 9 Uhr bis 18 Uhr - nach Absprache auch flexibel darüber hinaus ! 

 


 
 

Wir bieten professionelle und trotzdem sehr günstige Ausbildung in 4 Sparten an:

Motorflug Motorsegler Segelflug Ultraleicht

Bei unseren Gebühren gibt keine „versteckten Kosten“ wie

  • Baustunden oder finanzielle Ausgleiche dafür
  • Verpflichtung zu Diensten oder finanzielle Ausgleiche dafür
  • Umschulungs- oder Typengebühren

Ebenso gibt es bei uns keinerlei zeitlicher Verpflichtungen zur Teilnahme am Flugbetrieb!

Kümmern Sie sich nur um Ihre fliegerischen Ambitionen – wir unterstützen Sie dabei professionell, individuell, zielorientiert und maximal flexibel!

Feuerstein News Ticker

Webcam Blick N

webcam 2

Webcam Blick NO

webcam 1

METAR EDDN

[Quelle: ADDS]
METAR
EDDN 200520Z 21003KT 170V240 9999 FEW015 18/16 Q1013 NOSIG =
EDDN 200500Z 2006/2106 26007KT 9999 FEW020 PROB40 TEMPO 2013/2019 28020G35KT TSRA BKN020CB BECMG 2019/2021 VRB03KT
TAF
EDDN 200500Z 2006/2106 26007KT 9999 FEW020 PROB40 TEMPO 2013/2019 28020G35KT TSRA BKN020CB BECMG 2019/2021 VRB03KT =
SR / SS: 03:06 / 19:27 UTC (EDQE 2019-06-20)

Wetter EDQE


Das Wetter heute
Das Wetter morgen